Skip Page Navigation
NASA JPL Caltech
NASA Logo - Jet Propulsion Laboratory + View the NASA Portal
+ Center for Near-Earth Object Studies
JPL Home Earth Solar System Stars & Galaxies Technology
JPL Solar System Dynamics
BODIES ORBITS EPHEMERIDES TOOLS PHYSICAL DATA DISCOVERY FAQ SITE MAP
JPL Small-Body Database Browser
Search: [ help ]  
70322 (1999 RU150)
Classification: Main-belt Asteroid          SPK-ID: 2070322
Ephemeris | Orbit Diagram | Orbital Elements | Mission Design | Physical Parameters | Discovery Circumstances | Close-Approach Data ]

[ show orbit diagram ]
Orbital Elements at Epoch 2459000.5 (2020-May-31.0) TDB
Reference: JPL 19 (heliocentric ecliptic J2000)
 Element Value Uncertainty (1-sigma)   Units 
e .188611786197951 3.7142e-08  
a 2.40279718666801 1.1653e-08 au
q 1.949601317419145 8.836e-08 au
i 2.356226870058492 3.556e-06 deg
node 95.64520136539109 0.00011261 deg
peri 208.3515307193833 0.00011323 deg
M 228.4023409481791 1.4511e-05 deg
tp 2459497.801491876893
(2021-Oct-10.30149188)
5.6934e-05 TDB
period 1360.423417601853
3.72
9.8964e-06
2.709e-08
d
yr
n .2646234954074857 1.925e-09 deg/d
Q 2.855993055916874 1.3851e-08 au
  Orbit Determination Parameters
   # obs. used (total)      649  
   data-arc span      7528 days (20.61 yr)  
   first obs. used      1999-08-07  
   last obs. used      2020-03-17  
   planetary ephem.      DE431  
   SB-pert. ephem.      SB431-N16  
   condition code      0  
   norm. resid. RMS      .57918  
   source      ORB  
   producer      Otto Matic  
   solution date      2020-Nov-12 22:01:10  

Additional Information
 Earth MOID = .934741 au 
 Jupiter MOID = 2.37918 au 
 T_jup = 3.499 
[ show covariance matrix ]

Ephemeris | Orbit Diagram | Orbital Elements | Mission Design | Physical Parameters | Discovery Circumstances | Close-Approach Data ]

Physical Parameter Table
Parameter Symbol Value Units Sigma Reference Notes
absolute magnitude H 16.2   n/a MPO417314  

70322 (1999 RU150)          Discovered 1999-Sep-09 by LINEAR at Socorro
Reference: 20031109/Numbers.arcLast Updated: 2004-04-19

[ show close-approach data ]
Alternate Designations
 1999 RU150 = 2002 GN42 
Ephemeris | Orbit Diagram | Orbital Elements | Mission Design | Physical Parameters | Discovery Circumstances | Close-Approach Data ]
ABOUT SSD CREDITS/AWARDS PRIVACY/COPYRIGHT GLOSSARY LINKS
FirstGov 2021-Jan-27 21:26 UT
(server date/time)  
NASA Home Page
Site Manager:   Ryan S. Park
Webmaster  Alan B. Chamberlin